User: anonymous   Login
Location: Lac de la Montange Noire
(46.1952°N, 74.2701°W)
Time: 19:49:15
(UTC-05:00)
Language:

Iridium 42 - Orbit

View from above orbital plane
View from above orbital plane
View from above satellite
View from above satellite

Ground track
Ground track

The orbit data is extracted from the following two-line orbital elements,

1 25077U 97077A   16340.55341303  .00000059  00000-0  13942-4 0  9996
2 25077  86.3971 102.8960 0002030  98.5934 261.5492 14.34518122994435
Epoch (UTC): 05 December 2016 13:16:54
Eccentricity: 0.0002030
inclination: 86.3971°
perigee height: 775 km
apogee height: 778 km
right ascension of ascending node: 102.8960°
argument of perigee: 98.5934°
revolutions per day: 14.34518122
mean anomaly at epoch: 261.5492°
orbit number at epoch: 99443

The dashed part of the orbit path shows where the satellite is in the earth's shadow,  

DLR